Погода в Озерном крае

Великобритания     54°27′39″N   3°01′23″W
темп.,
°C
ветер,
м/с
пор.,
м/с
влажн.,
%
обл.,
%
осадки,
мм/ч
давл.,
гПа
погр.,
м
15 мая, сб
сб1501:00+5вюв119191 0.4 100510
04:00+5вюв119099 0.1 100319
07:00+6всв1293100 1.1 100277
10:00+7вюв2683100 0.1 1001805
13:00+8юв2585100 0.4 1000584
16:00+9юв3584100 1.1 998777
19:00+8ююв1292100 2.1 998291
22:00+6вюв1194100 0.3 99824
16 мая, вс
вс1601:00+6юв1192100 0.3 99715
04:00+6юв119399 0.1 99622
07:00+7юв129495 0.1 996110
10:00+8ююв228682 0.3 997454
13:00+11с1172100 1.6 9961187
16:00+10с2281100 1.6 996578
19:00+10с238478 2.8 997437
22:00+6св2295100 1.3 99819
17 мая, пн
пн1701:00+5ссв229662 1.3 100022
04:00+4ссв229899 0.0 100138
07:00+6ссв229547 0.0 1002125
10:00+9ссз237758 0.0 1003874
13:00+11зсз337195 0.9 10041100
16:00+10зсз677878 1.6 1005975
19:00+9зсз487689 1.6 1006752
22:00+4з229077 0.0 100813
18 мая, вт
вт1801:00+3з229239 0.0 100914
04:00+3зюз22935 0.0 101014
07:00+6з268743 0.0 1011515
10:00+8з577748 0.1 10121027
13:00+9з897261 0.4 10121243
16:00+10зюз896937 0.1 10131337
19:00+9з610815 0.1 1013963
22:00+5зюз229321 0.0 101415
19 мая, ср
ср1901:00+5зюз229694 0.0 101568
04:00+6зсз488595 0.1 1015688
07:00+6з378640 0.2 1016737
10:00+8зсз687334 0.0 10181101
13:00+10з687079 0.1 10181438
16:00+9з686829 0.1 10181150
19:00+9зюз257779 0.1 1017650
22:00+5юз2295100 0.0 101817